N1LTP Weather Reports


Display with metric or nautical units.
time (UTC)temp
F
wind
direction
speed
MPH
gust
MPH
rain 1hr
in
rain 24hr
in
rain mn
in
humidity
%
barometer
mb
20260504000012 50 330 1.0 5.0 0.00 0.00 0.00 46 1008.4
20260503234512 51 341 3.0 9.0 0.00 0.00 0.00 43 1008.2
20260503233016 51 338 4.0 11.0 0.00 0.00 0.00 43 1008.1
20260503231511 51 342 3.0 8.0 0.00 0.00 0.00 43 1007.9
20260503230011 52 281 1.0 9.0 0.00 0.00 0.00 45 1007.6
20260503224509 52 308 3.0 15.0 0.00 0.00 0.00 43 1007.5
20260503223009 52 328 5.0 14.0 0.00 0.00 0.00 42 1007.2
20260503221512 52 280 5.0 13.0 0.00 0.00 0.00 43 1007.0
20260503220007 52 290 8.0 18.0 0.00 0.00 0.00 42 1006.9
20260503214508 52 312 5.0 17.0 0.00 0.00 0.00 44 1006.7
20260503213006 53 252 7.0 15.0 0.00 0.00 0.00 43 1006.3
20260503211505 53 312 4.0 16.0 0.00 0.00 0.00 42 1006.2
20260503210005 53 308 2.0 14.0 0.00 0.00 0.00 45 1005.9
20260503204505 53 278 6.0 16.0 0.00 0.00 0.00 43 1005.7
20260503203003 53 281 6.0 12.0 0.00 0.00 0.00 45 1005.5
20260503201502 53 333 3.0 15.0 0.00 0.00 0.00 45 1005.5
20260503200059 53 327 4.0 17.0 0.00 0.00 0.00 45 1005.5
20260503194601 53 322 7.0 14.0 0.00 0.00 0.00 44 1005.5
20260503193057 52 325 1.0 11.0 0.00 0.00 0.00 49 1005.4
20260503191556 52 304 4.0 14.0 0.00 0.00 0.00 49 1005.6
20260503190055 52 306 2.0 8.0 0.00 0.00 0.00 51 1005.6
20260503184557 53 292 1.0 5.0 0.00 0.00 0.00 52 1005.5
20260503183052 52 315 1.0 10.0 0.00 0.00 0.00 53 1005.6
20260503181551 51 250 6.0 13.0 0.00 0.00 0.00 51 1005.6
20260503180059 52 316 5.0 13.0 0.00 0.00 0.00 52 1005.6
20260503174551 52 309 4.0 11.0 0.00 0.00 0.00 51 1005.5
20260503173046 51 294 2.0 11.0 0.00 0.00 0.00 58 1005.5
20260503171547 49 298 3.0 11.0 0.00 0.00 0.00 61 1005.7
20260503081538 45 305 2.0 6.0 0.00 0.00 0.00 77 1006.8
20260503071541 46 306 2.0 8.0 0.00 0.00 0.00 73 1007.4
20260503054519 48 292 1.0 4.0 0.00 0.00 0.00 74 1008.5
20260503053018 48 304 1.0 5.0 0.00 0.00 0.00 76 1008.6
20260503051513 48 304 2.0 6.0 0.00 0.00 0.00 78 1008.6
20260503050021 48 281 2.0 9.0 0.00 0.00 0.00 82 1008.7
20260503044509 48 286 1.0 4.0 0.00 0.00 0.00 90 1008.9
20260503043007 48 317 0.0 4.0 0.00 0.00 0.00 91 1009.0
20260503041505 48 312 1.0 3.0 0.00 0.00 0.00 91 1009.3
20260503040003 48 55 0.0 3.0 0.00 0.00 0.00 91 1009.6
20260503034600 48 59 0.0 0.0 0.00 0.00 0.00 91 1009.4
20260503033058 48 59 0.0 2.0 0.00 0.00 0.00 91 1009.5
20260503031606 48 79 0.0 1.0 0.00 0.00 0.00 91 1009.6
20260503030058 48 79 0.0 0.0 0.00 0.00 0.00 90 1009.4
20260503024556 48 79 0.0 0.0 0.00 0.00 0.00 90 1009.6
20260503023055 48 79 0.0 0.0 0.00 0.00 0.00 89 1009.8
20260503021554 49 79 0.0 0.0 0.00 0.00 0.00 89 1009.6
20260503020055 49 79 0.0 0.0 0.00 0.00 0.00 89 1009.8
20260503014608 49 79 0.0 0.0 0.00 0.00 0.00 89 1010.0
20260503013053 49 79 0.0 0.0 0.00 0.00 0.00 88 1010.0
20260503011557 49 79 0.0 0.0 0.00 0.00 0.00 88 1009.9
20260503010052 49 80 0.0 0.0 0.00 0.00 0.00 88 1009.9
20260503004552 49 80 0.0 0.0 0.00 0.00 0.00 88 1009.9
20260503003051 50 80 0.0 0.0 0.00 0.00 0.00 87 1009.7
20260503001601 50 80 0.0 0.0 0.00 0.00 0.00 87 1009.7